Location: D�nning
(49.2479°N, 12.8491°E)
Time: 01:58:33
(UTC+00:00)

Cosmos 1891 Rocket - Pass Details

Date: 18 September 2020
Orbit: 934 x 1018 km, 82.9° (Epoch: 24 October)

Event Time Altitude Azimuth Distance (km) Brightness Sun altitude
Rises 18:25:21 0° 178° (S) 3,644 7.3 -12.2°
Reaches altitude 10° 18:27:52 10° 176° (S) 2,690 6.6 -12.6°
Maximum altitude 18:33:57 68° 95° (E) 1,021 4.4 -13.5°
Drops below altitude 10° 18:39:58 10° 14° (NNE) 2,665 6.9 -14.5°
Sets 18:42:27 0° 12° (NNE) 3,608 7.6 -14.9°
